Wind_Speed
8 9 10 10 10 8 8 7 6 4 3 4 5 5 5 5 5 6 6 6 6 6 7 7 7 7 7 7 7 7 7 6 6 6 6 6 5 5 5 5 5 5 5
8 9 10 10 9 9 9 8 7 6 5 5 6 7 6 5 5 6 7 7 6 7 8 8 9 8 8 8 8 8 8 8 7 7 7 7 7 7 7 7 7 6 6
8 9 10 10 10 9 9 9 8 7 6 6 6 7 7 5 6 6 7 7 8 8 9 9 10 10 10 10 10 10 10 9 9 9 9 9 9 9 9 9 9 8 8
9 9 10 11 10 10 10 10 10 9 7 6 6 6 7 7 6 6 7 7 8 9 10 10 10 10 10 11 11 11 11 11 11 11 11 11 11 11 11 11 11 11 11
8 9 10 11 11 11 11 11 11 10 9 8 8 8 7 8 8 8 8 8 9 10 10 11 11 12 12 13 13 12 13 13 14 14 13 13 13 13 13 13 13 13 13
8 10 11 12 12 12 11 11 12 11 10 9 8 9 9 9 9 9 9 10 10 10 11 12 13 14 14 15 15 15 14 15 15 15 16 16 15 16 16 15 16 16 16
9 10 11 13 13 12 11 10 11 10 9 9 8 8 9 9 9 10 10 11 11 12 12 13 14 15 15 16 16 16 16 17 17 17 17 17 18 18 18 18 19 18 18
11 11 12 13 13 12 11 10 11 10 9 8 8 8 9 10 10 11 11 12 12 13 14 15 15 15 16 17 17 17 18 18 19 19 19 19 19 19 19 20 21 21 20
12 12 13 12 13 12 10 10 10 10 9 9 9 9 9 10 11 12 12 13 13 14 15 15 17 17 17 18 18 18 18 19 19 20 21 21 21 21 21 21 22 22 22
12 13 12 12 13 12 10 10 10 10 9 10 10 10 10 11 12 13 14 14 14 14 15 16 17 18 18 19 19 19 19 20 21 21 22 22 21 22 22 22 23 22 23
12 13 13 13 12 12 11 10 11 11 10 11 11 11 12 12 13 13 13 14 14 15 16 16 17 18 19 19 19 19 19 20 21 22 22 22 23 23 24 24 24 24 24
13 13 13 13 12 12 11 11 11 11 10 11 12 12 13 13 13 13 13 13 14 15 16 17 18 18 18 18 19 20 21 22 22 23 23 23 24 25 26 26 26 25 24
13 12 12 12 12 12 11 11 10 10 10 11 12 13 13 13 13 13 13 14 15 15 16 18 18 19 18 19 20 20 21 23 23 23 24 25 25 26 26 27 27 27 26
13 13 13 12 12 12 12 11 11 11 11 11 12 13 12 12 12 13 13 14 15 16 17 18 18 19 20 21 21 22 22 23 24 24 25 25 26 26 26 27 26 26 26
14 13 13 12 12 12 12 12 11 11 11 12 13 13 13 12 13 13 14 15 16 17 17 18 18 19 20 21 22 22 22 23 24 24 25 24 24 25 26 26 26 25 26
14 14 13 13 13 13 12 12 11 12 12 13 14 14 15 15 15 15 16 16 17 17 17 17 18 20 21 21 22 23 23 24 24 24 23 24 24 24 24 25 25 25 25
15 15 15 15 14 14 14 14 13 14 14 15 15 15 16 16 16 17 17 18 18 18 18 19 20 21 21 22 23 23 24 24 24 24 24 24 23 22 22 23 24 26 26
16 16 16 16 16 16 16 16 16 16 16 16 17 17 16 17 18 18 18 18 18 19 19 20 21 21 21 21 22 22 23 23 24 24 24 23 22 22 23 25 26 27 28
17 17 17 17 17 17 16 16 17 17 17 17 17 17 18 18 18 18 18 18 19 19 20 21 20 21 21 21 21 22 21 22 22 22 23 23 23 23 23 24 26 27 28
18 18 18 18 17 17 17 17 17 18 18 18 18 19 19 19 19 19 19 20 20 20 21 21 21 21 20 20 20 21 20 20 21 21 22 22 23 23 24 25 26 27 28
20 20 19 18 18 18 18 18 19 19 19 20 20 20 20 21 21 21 21 22 22 22 22 22 21 21 21 21 20 21 20 20 21 22 22 22 22 23 24 25 26 27 28
21 20 20 20 20 20 20 20 20 21 21 20 21 21 22 22 22 22 22 23 23 23 22 22 22 21 21 22 22 21 21 22 22 23 23 24 24 25 25 26 27 28 29
22 21 22 22 22 21 21 21 22 22 22 21 22 22 23 23 23 23 23 23 23 23 22 22 22 22 22 22 22 22 23 23 24 24 24 25 26 26 27 28 28 29 31
22 22 22 23 23 23 22 22 23 23 23 22 23 23 23 23 23 24 23 23 22 22 22 22 22 22 22 22 22 22 23 23 24 25 26 27 27 28 28 29 30 31 32
24 24 23 23 24 24 23 23 23 23 22 22 23 23 23 24 24 23 23 23 22 22 22 22 21 21 22 22 23 23 23 24 24 26 27 27 28 29 29 30 31 31 32
25 25 25 25 24 24 24 23 23 22 22 23 23 23 23 23 24 23 23 22 22 22 21 21 21 21 22 22 23 23 24 24 25 26 27 28 29 29 30 30 30 31 32
Wind_Direction
341 342 342 344 343 345 341 336 333 314 299 276 273 278 270 260 246 243 242 242 242 232 228 230 228 226 230 234 239 242 243 247 252 255 254 249 254 258 265 270 278 281 284
330 332 335 337 341 340 336 333 331 320 303 292 281 276 269 259 247 244 243 243 244 239 234 236 235 234 236 238 243 246 249 251 253 257 258 258 254 255 260 268 271 276 279
317 322 326 331 329 327 326 327 330 321 306 296 290 275 264 262 251 248 248 249 249 247 246 245 242 243 244 245 246 250 251 254 255 259 262 264 258 255 259 264 265 269 272
313 317 322 328 325 318 319 322 320 313 308 303 304 291 263 255 255 253 256 258 257 255 253 250 247 247 248 249 251 254 254 255 257 259 262 264 260 257 260 263 265 266 269
313 317 321 324 324 318 310 310 311 307 303 294 291 285 274 261 260 259 259 264 264 260 255 254 252 252 252 252 255 258 258 258 260 260 260 262 261 260 260 261 264 266 267
312 318 321 324 321 320 311 306 309 305 301 291 283 279 272 268 269 266 266 270 268 262 258 259 260 259 258 259 260 264 263 264 263 261 260 261 261 262 263 262 264 266 268
309 316 319 322 322 318 314 308 308 303 297 292 282 277 271 268 269 269 271 271 268 266 266 267 267 267 264 264 267 269 268 266 265 263 263 262 262 263 265 264 265 266 266
304 307 313 316 319 315 312 309 309 303 296 292 283 278 272 271 270 268 269 270 269 272 272 272 271 270 267 266 268 270 271 270 269 266 265 265 265 263 265 267 266 265 266
300 302 307 312 314 314 309 308 310 304 291 288 285 281 275 271 271 268 269 269 272 274 275 274 272 272 271 269 270 270 271 270 270 271 270 269 268 267 267 269 269 269 269
293 297 303 309 310 310 307 302 306 303 294 287 285 281 276 273 271 273 275 275 275 277 277 279 276 274 272 271 270 271 272 272 271 272 271 270 270 270 268 270 270 270 272
290 295 299 303 305 307 307 302 300 299 292 286 284 280 274 274 275 277 276 275 275 277 275 278 277 273 272 270 270 271 274 274 274 275 273 271 270 270 270 270 270 272 273
288 291 295 297 301 305 304 304 302 301 295 290 289 287 280 275 276 276 277 280 279 277 275 276 277 277 275 271 272 273 275 276 275 277 275 272 272 271 271 270 270 272 272
284 289 292 293 299 303 303 300 300 299 298 297 295 295 289 281 279 278 281 285 284 281 277 276 276 277 276 275 275 274 275 277 278 279 276 273 273 272 271 271 272 272 273
281 284 290 292 296 300 302 300 297 296 297 299 298 299 296 289 285 285 286 287 287 285 282 280 278 277 278 279 278 277 277 279 278 279 278 276 274 273 273 272 272 272 273
280 282 287 292 295 298 297 297 295 296 295 298 298 299 297 295 292 292 294 293 289 288 287 285 282 281 281 280 280 279 279 280 280 279 279 278 278 277 276 275 273 273 276
275 279 284 290 291 293 290 290 291 293 295 298 299 298 296 295 296 297 298 297 297 294 292 290 285 283 282 282 282 281 280 280 281 281 281 281 281 277 276 275 275 275 277
270 274 282 287 287 288 285 285 289 291 293 295 296 297 296 295 295 296 297 298 298 295 293 291 289 288 288 286 284 282 281 281 282 284 283 282 282 281 278 277 278 277 277
266 271 280 286 286 287 285 283 286 288 290 292 294 294 294 295 295 294 296 298 298 296 295 294 293 291 289 289 286 285 283 283 285 285 284 283 283 283 281 280 281 280 278
264 270 276 280 282 285 287 285 285 287 288 290 292 292 294 295 295 295 296 297 298 298 297 299 296 294 293 291 290 288 287 285 285 286 286 286 286 284 282 282 284 283 282
264 269 273 275 278 282 283 284 286 287 287 288 290 290 293 294 294 295 296 297 298 299 298 297 295 295 295 294 292 291 290 288 287 287 288 288 288 286 285 286 288 287 285
263 267 270 272 274 278 282 284 286 287 286 286 287 289 291 293 294 295 296 297 298 298 298 297 296 295 294 294 293 293 292 290 290 291 291 291 291 291 291 290 290 290 289
261 264 267 270 273 277 280 282 283 285 285 283 285 287 290 292 293 294 295 296 297 298 298 297 296 294 294 293 292 293 293 291 292 292 293 294 295 294 293 293 293 292 292
257 261 265 268 271 274 278 280 282 284 285 285 285 288 290 291 293 294 295 295 296 296 296 296 296 294 293 292 291 292 292 292 293 293 294 295 296 296 295 295 296 296 295
257 261 263 267 270 272 276 279 280 283 285 285 285 287 289 290 292 294 295 296 296 296 295 295 295 296 294 293 292 292 293 293 294 295 296 296 296 297 297 297 296 296 297
257 260 262 265 268 270 273 276 278 280 282 284 286 288 289 291 293 295 295 296 296 296 296 295 295 296 296 296 294 293 293 294 295 297 297 297 297 297 297 297 297 298 298
257 260 261 264 267 268 270 274 276 278 280 283 286 288 290 291 293 294 295 295 297 297 297 297 297 297 297 296 297 297 296 296 297 298 299 299 299 299 299 299 299 300 300
Height
5914 5913 5911 5910 5908 5906 5905 5903 5902 5902 5901 5900 5900 5900 5900 5900 5900 5900 5901 5901 5901 5902 5902 5903 5904 5904 5905 5906 5906 5907 5907 5908 5908 5909 5909 5908 5908 5908 5908 5908 5908 5908 5907
5914 5912 5911 5909 5908 5906 5905 5903 5902 5901 5900 5899 5899 5899 5899 5898 5899 5899 5899 5899 5900 5900 5901 5902 5902 5903 5904 5904 5905 5906 5906 5907 5907 5907 5907 5907 5908 5907 5907 5907 5907 5907 5906
5913 5912 5910 5908 5907 5905 5903 5902 5901 5900 5899 5898 5897 5897 5897 5897 5897 5898 5898 5898 5898 5899 5899 5900 5900 5901 5902 5903 5903 5904 5904 5905 5905 5905 5905 5905 5905 5905 5905 5905 5905 5905 5905
5913 5911 5909 5907 5906 5904 5902 5901 5900 5899 5897 5896 5896 5895 5896 5896 5896 5896 5896 5896 5896 5897 5897 5898 5899 5899 5900 5901 5901 5902 5902 5903 5903 5903 5903 5903 5902 5903 5903 5903 5903 5902 5902
5912 5910 5908 5907 5905 5903 5901 5900 5898 5897 5896 5895 5894 5894 5894 5894 5894 5894 5895 5895 5895 5895 5896 5896 5896 5897 5898 5898 5899 5899 5899 5900 5900 5900 5900 5900 5900 5900 5900 5900 5900 5900 5899
5911 5909 5907 5905 5903 5901 5899 5898 5896 5895 5894 5893 5893 5892 5892 5892 5892 5892 5893 5893 5893 5893 5894 5894 5894 5895 5895 5895 5895 5896 5896 5896 5896 5897 5897 5897 5897 5897 5896 5896 5896 5896 5896
5909 5908 5906 5904 5902 5900 5898 5896 5895 5893 5892 5891 5891 5890 5890 5890 5890 5890 5891 5891 5891 5891 5892 5891 5891 5892 5892 5892 5892 5892 5892 5892 5892 5892 5892 5892 5893 5893 5893 5892 5892 5892 5892
5908 5906 5905 5903 5900 5898 5896 5895 5893 5891 5890 5889 5889 5888 5888 5888 5888 5888 5888 5888 5888 5889 5889 5889 5888 5888 5888 5888 5888 5888 5888 5888 5888 5888 5888 5888 5888 5888 5888 5887 5887 5887 5887
5905 5904 5902 5900 5898 5896 5894 5893 5892 5890 5888 5888 5887 5886 5886 5886 5886 5885 5885 5885 5886 5886 5885 5885 5885 5885 5884 5884 5884 5884 5884 5884 5884 5883 5883 5883 5883 5883 5883 5882 5882 5882 5881
5903 5901 5900 5898 5896 5894 5892 5891 5890 5888 5887 5886 5885 5884 5883 5883 5883 5883 5882 5882 5882 5882 5882 5881 5881 5881 5880 5880 5880 5880 5880 5879 5879 5878 5878 5878 5877 5877 5877 5877 5876 5876 5876
5900 5898 5897 5895 5894 5892 5890 5889 5888 5887 5885 5884 5883 5882 5881 5881 5880 5880 5879 5879 5879 5879 5878 5877 5877 5876 5876 5876 5875 5875 5875 5874 5874 5873 5872 5872 5872 5871 5871 5870 5870 5870 5869
5897 5896 5894 5893 5891 5889 5888 5887 5886 5884 5883 5882 5881 5880 5878 5878 5877 5876 5876 5875 5875 5874 5874 5874 5873 5872 5872 5871 5871 5870 5870 5869 5868 5867 5867 5866 5865 5865 5864 5864 5864 5863 5863
5894 5893 5892 5890 5889 5887 5886 5884 5883 5882 5881 5880 5879 5878 5876 5875 5874 5873 5873 5872 5871 5871 5870 5870 5869 5868 5868 5867 5866 5865 5864 5864 5863 5862 5861 5860 5859 5858 5857 5857 5857 5856 5856
5891 5890 5889 5888 5887 5885 5884 5882 5881 5880 5879 5878 5877 5875 5874 5872 5871 5871 5870 5869 5868 5867 5866 5866 5864 5864 5863 5862 5861 5860 5859 5858 5856 5855 5854 5853 5852 5851 5850 5850 5849 5849 5849
5888 5887 5887 5886 5884 5883 5881 5880 5879 5878 5877 5876 5874 5873 5872 5870 5869 5868 5866 5865 5864 5863 5862 5861 5860 5859 5858 5857 5856 5854 5853 5852 5850 5849 5847 5846 5845 5843 5842 5842 5842 5842 5841
5885 5885 5884 5883 5882 5880 5879 5878 5877 5876 5875 5873 5872 5870 5869 5867 5866 5865 5863 5862 5861 5859 5858 5856 5855 5854 5853 5851 5850 5848 5847 5845 5844 5843 5841 5839 5838 5836 5835 5835 5835 5835 5834
5882 5881 5881 5880 5879 5877 5876 5875 5874 5873 5872 5871 5869 5868 5866 5864 5863 5862 5860 5859 5857 5855 5854 5852 5850 5849 5847 5845 5844 5842 5841 5839 5838 5837 5835 5833 5831 5829 5829 5829 5828 5828 5826
5878 5877 5877 5876 5875 5874 5873 5872 5871 5870 5869 5868 5866 5865 5863 5861 5860 5858 5857 5855 5853 5851 5849 5847 5845 5843 5841 5840 5838 5836 5835 5834 5833 5831 5829 5828 5826 5824 5823 5823 5822 5820 5819
5874 5873 5873 5872 5871 5870 5869 5869 5868 5867 5865 5864 5863 5861 5860 5858 5857 5855 5853 5851 5849 5847 5845 5842 5840 5838 5836 5834 5833 5831 5829 5828 5827 5826 5824 5822 5821 5819 5818 5816 5815 5813 5811
5869 5869 5868 5868 5867 5866 5865 5865 5864 5863 5861 5860 5859 5857 5856 5854 5853 5851 5849 5847 5844 5842 5840 5838 5836 5834 5832 5830 5828 5826 5824 5823 5822 5820 5818 5817 5815 5813 5811 5810 5808 5806 5804
5864 5864 5863 5863 5863 5862 5861 5860 5859 5858 5857 5856 5855 5853 5851 5850 5848 5846 5844 5842 5840 5838 5835 5833 5831 5829 5827 5825 5823 5821 5820 5818 5817 5815 5813 5811 5809 5807 5805 5803 5800 5798 5796
5858 5858 5858 5858 5858 5857 5857 5856 5855 5854 5852 5851 5850 5848 5847 5845 5843 5841 5839 5837 5835 5833 5830 5828 5826 5824 5822 5820 5818 5817 5815 5813 5812 5809 5807 5805 5803 5800 5798 5796 5793 5791 5788
5852 5853 5853 5853 5852 5852 5851 5850 5850 5848 5847 5846 5845 5843 5842 5840 5838 5836 5834 5832 5829 5827 5825 5823 5821 5819 5817 5815 5813 5811 5809 5807 5806 5803 5801 5799 5796 5794 5791 5788 5786 5783 5780
5846 5847 5847 5847 5847 5846 5845 5845 5844 5843 5842 5841 5840 5838 5836 5835 5833 5831 5828 5826 5824 5821 5819 5817 5815 5813 5811 5809 5807 5805 5803 5801 5799 5797 5794 5792 5789 5786 5784 5781 5778 5775 5772
5840 5840 5840 5841 5840 5840 5840 5839 5838 5837 5836 5835 5834 5832 5831 5829 5827 5825 5823 5821 5819 5816 5814 5812 5810 5807 5805 5803 5801 5799 5797 5794 5792 5790 5787 5785 5782 5779 5775 5772 5769 5766 5763
5833 5833 5833 5834 5834 5834 5834 5833 5832 5831 5831 5829 5828 5827 5825 5823 5821 5819 5817 5815 5813 5811 5809 5806 5804 5802 5800 5797 5795 5793 5790 5788 5786 5783 5780 5777 5774 5770 5767 5764 5761 5757 5754